| time (UTC) | temp C | wind direction | speed KPH | gust KPH | rain 1hr cm | rain 24hr cm | rain mn cm | humidity % | barometer mb |
| 20260503211538 | 26 | 250 | 4.8 | 4.8 | 0.00 | 0.00 | 0.00 | 52 | 1011.5 |
| 20260503210052 | 26 | 275 | 8.0 | 8.0 | 0.00 | 0.00 | 0.00 | 50 | 1011.7 |
| 20260503204522 | 25 | 264 | 1.6 | 1.6 | 0.00 | 0.00 | 0.00 | 53 | 1011.8 |
| 20260503203035 | 25 | 326 | 1.6 | 1.6 | 0.00 | 0.00 | 0.00 | 53 | 1011.9 |
| 20260503201525 | 25 | 300 | 6.4 | 6.4 | 0.00 | 0.00 | 0.00 | 54 | 1011.9 |
| 20260503200021 | 25 | 20 | 0.0 | 0.0 | 0.00 | 0.00 | 0.00 | 53 | 1012.1 |
| 20260503194530 | 24 | 139 | 1.6 | 1.6 | 0.00 | 0.00 | 0.00 | 58 | 1012.4 |
| 20260503193020 | 23 | 304 | 3.2 | 3.2 | 0.00 | 0.00 | 0.00 | 55 | 1012.7 |
| 20260503191535 | 23 | 265 | 4.8 | 4.8 | 0.00 | 0.00 | 0.00 | 54 | 1012.8 |
| 20260503190042 | 22 | 321 | 3.2 | 3.2 | 0.00 | 0.00 | 0.00 | 56 | 1012.9 |
| 20260503184532 | 22 | 310 | 1.6 | 1.6 | 0.00 | 0.00 | 0.00 | 57 | 1013.2 |
| 20260503183029 | 22 | 355 | 6.4 | 6.4 | 0.00 | 0.00 | 0.00 | 59 | 1013.3 |
| 20260503181540 | 22 | 279 | 3.2 | 3.2 | 0.00 | 0.00 | 0.00 | 61 | 1013.4 |
| 20260503180054 | 21 | 291 | 1.6 | 1.6 | 0.00 | 0.00 | 0.00 | 61 | 1013.5 |
| 20260503174524 | 21 | 327 | 1.6 | 1.6 | 0.00 | 0.00 | 0.00 | 64 | 1013.8 |
| 20260503173017 | 20 | 292 | 3.2 | 3.2 | 0.00 | 0.00 | 0.00 | 64 | 1013.9 |
| 20260503171531 | 20 | 228 | 3.2 | 3.2 | 0.00 | 0.00 | 0.00 | 64 | 1014.2 |
| 20260503081533 | 9 | 13 | 0.0 | 0.0 | 0.00 | 0.00 | 0.00 | 89 | 1014.5 |
| 20260503071537 | 10 | 13 | 0.0 | 0.0 | 0.00 | 0.00 | 0.00 | 86 | 1014.4 |
| 20260503054528 | 12 | 13 | 0.0 | 0.0 | 0.00 | 0.00 | 0.00 | 80 | 1014.2 |
| 20260503053025 | 13 | 13 | 0.0 | 0.0 | 0.00 | 0.00 | 0.00 | 79 | 1014.1 |
| 20260503051535 | 13 | 13 | 0.0 | 0.0 | 0.00 | 0.00 | 0.00 | 76 | 1014.0 |
| 20260503050030 | 14 | 13 | 0.0 | 0.0 | 0.00 | 0.00 | 0.00 | 75 | 1014.0 |
| 20260503044520 | 15 | 13 | 0.0 | 0.0 | 0.00 | 0.00 | 0.00 | 73 | 1013.9 |
| 20260503043037 | 15 | 13 | 0.0 | 0.0 | 0.00 | 0.00 | 0.00 | 71 | 1013.7 |
| 20260503041526 | 16 | 13 | 0.0 | 0.0 | 0.00 | 0.00 | 0.00 | 69 | 1013.4 |
| 20260503040021 | 17 | 13 | 0.0 | 0.0 | 0.00 | 0.00 | 0.00 | 66 | 1013.4 |
| 20260503034532 | 17 | 11 | 0.0 | 0.0 | 0.00 | 0.00 | 0.00 | 63 | 1013.1 |
| 20260503033022 | 18 | 9 | 0.0 | 0.0 | 0.00 | 0.00 | 0.00 | 60 | 1012.9 |
| 20260503031536 | 20 | 10 | 1.6 | 1.6 | 0.00 | 0.00 | 0.00 | 57 | 1012.9 |
| 20260503030029 | 20 | 314 | 3.2 | 3.2 | 0.00 | 0.00 | 0.00 | 55 | 1012.7 |
| 20260503024526 | 21 | 294 | 1.6 | 1.6 | 0.00 | 0.00 | 0.00 | 54 | 1012.6 |
| 20260503023037 | 21 | 340 | 3.2 | 3.2 | 0.00 | 0.00 | 0.00 | 53 | 1012.5 |
| 20260503021532 | 21 | 318 | 6.4 | 6.4 | 0.00 | 0.00 | 0.00 | 50 | 1012.4 |
| 20260503020021 | 22 | 296 | 6.4 | 6.4 | 0.00 | 0.00 | 0.00 | 49 | 1012.6 |
| 20260503014531 | 22 | 311 | 3.2 | 3.2 | 0.00 | 0.00 | 0.00 | 48 | 1012.8 |
| 20260503013046 | 22 | 304 | 11.3 | 11.3 | 0.00 | 0.00 | 0.00 | 48 | 1012.9 |
| 20260503011535 | 22 | 329 | 4.8 | 4.8 | 0.00 | 0.00 | 0.00 | 47 | 1012.9 |
| 20260503010028 | 23 | 284 | 8.0 | 8.0 | 0.00 | 0.00 | 0.00 | 46 | 1012.9 |
| 20260503004536 | 23 | 323 | 3.2 | 3.2 | 0.00 | 0.00 | 0.00 | 47 | 1013.0 |
| 20260503003026 | 23 | 345 | 8.0 | 8.0 | 0.00 | 0.00 | 0.00 | 50 | 1013.0 |
| 20260503001520 | 23 | 311 | 9.7 | 9.7 | 0.00 | 0.00 | 0.00 | 52 | 1013.0 |
| 20260503000030 | 23 | 288 | 11.3 | 11.3 | 0.00 | 0.00 | 0.00 | 55 | 1012.9 |
| 20260502234524 | 23 | 306 | 3.2 | 3.2 | 0.00 | 0.00 | 0.00 | 56 | 1013.1 |
| 20260502233034 | 23 | 331 | 6.4 | 6.4 | 0.00 | 0.00 | 0.00 | 56 | 1013.3 |
| 20260502231524 | 23 | 321 | 3.2 | 3.2 | 0.00 | 0.00 | 0.00 | 56 | 1013.5 |
| 20260502230039 | 23 | 311 | 12.9 | 12.9 | 0.00 | 0.00 | 0.00 | 58 | 1013.7 |
| 20260502224529 | 23 | 317 | 6.4 | 6.4 | 0.00 | 0.00 | 0.00 | 57 | 1013.9 |
| 20260502223021 | 23 | 304 | 8.0 | 8.0 | 0.00 | 0.00 | 0.00 | 57 | 1014.0 |
| 20260502221532 | 23 | 317 | 4.8 | 4.8 | 0.00 | 0.00 | 0.00 | 62 | 1014.4 |
| 20260502220027 | 22 | 300 | 8.0 | 8.0 | 0.00 | 0.00 | 0.00 | 64 | 1014.4 |
| 20260502214537 | 22 | 257 | 3.2 | 3.2 | 0.00 | 0.00 | 0.00 | 63 | 1014.5 |
| 20260502213046 | 22 | 346 | 3.2 | 3.2 | 0.00 | 0.00 | 0.00 | 63 | 1014.8 |